Retour au catalogue

STARLINK-37246

ActifCommunicationsSSO
NORAD 68607·PAYLOAD·🇺🇸 United States

Lancé Apr 5, 2026 depuis Vandenberg Space Force Base

Loading…

Prochains Passages (prochaines 24 heures)

TLE

FraisSource: CelesTrak SupGP

Époque: Sep 14, 2026, 23:21 UTC

1 68607C 26073F   26257.97340278  .00080342  00000+0  24944-2 0  2575
2 68607  97.2851  96.1223 0001722  91.6801  47.7248 15.33392593    17

Suivez STARLINK-37246 en temps réel avec AllMySat

Download on the App Store